TimeCST,TemperatureF,Dew PointF,Humidity,Sea Level PressureIn,VisibilityMPH,Wind Direction,Wind SpeedMPH,Gust SpeedMPH,PrecipitationIn,Events,Conditions,WindDirDegrees,DateUTC
12:58 AM,45.0,40.1,83,30.30,10.0,Variable,2.3,-,N/A,,Clear,0,2013-12-18 06:58:00
1:58 AM,44.4,38.7,80,30.30,10.0,NW,2.3,-,N/A,,Clear,310,2013-12-18 07:58:00
2:58 AM,44.2,40.3,86,30.30,10.0,Calm,Calm,-,N/A,,Clear,0,2013-12-18 08:58:00
3:58 AM,42.6,39.2,88,30.30,10.0,NNE,2.3,-,N/A,,Clear,30,2013-12-18 09:58:00
4:58 AM,42.8,37.9,83,30.31,10.0,NE,5.8,-,N/A,,Clear,40,2013-12-18 10:58:00
5:58 AM,41.7,37.0,83,30.32,10.0,NE,6.9,-,N/A,,Clear,40,2013-12-18 11:58:00
6:58 AM,42.1,38.3,86,30.33,10.0,NE,10.4,-,N/A,,Clear,40,2013-12-18 12:58:00
7:58 AM,45.1,40.3,83,30.37,10.0,Variable,3.5,-,N/A,,Clear,0,2013-12-18 13:58:00
8:58 AM,51.4,39.9,65,30.38,10.0,ENE,6.9,-,N/A,,Clear,60,2013-12-18 14:58:00
9:58 AM,57.6,37.0,46,30.39,10.0,East,8.1,-,N/A,,Clear,90,2013-12-18 15:58:00
10:58 AM,60.3,34.7,38,30.38,10.0,East,8.1,-,N/A,,Clear,100,2013-12-18 16:58:00
11:58 AM,63.0,35.2,36,30.35,10.0,ESE,4.6,-,N/A,,Clear,110,2013-12-18 17:58:00
12:58 PM,60.6,42.4,51,30.32,10.0,SSE,6.9,-,N/A,,Clear,160,2013-12-18 18:58:00
1:58 PM,60.6,40.6,48,30.30,10.0,SSE,5.8,-,N/A,,Clear,150,2013-12-18 19:58:00
2:58 PM,60.1,43.0,53,30.30,10.0,South,6.9,-,N/A,,Clear,170,2013-12-18 20:58:00
3:58 PM,58.6,44.6,60,30.29,10.0,SSW,5.8,-,N/A,,Clear,200,2013-12-18 21:58:00
4:58 PM,53.6,44.1,70,30.29,10.0,South,3.5,-,N/A,,Clear,190,2013-12-18 22:58:00
5:58 PM,51.8,45.3,79,30.28,10.0,Calm,Calm,-,N/A,,Clear,0,2013-12-18 23:58:00
6:58 PM,49.1,47.7,95,30.28,10.0,Calm,Calm,-,N/A,,Clear,0,2013-12-19 00:58:00
7:58 PM,47.8,47.8,100,30.29,10.0,Calm,Calm,-,N/A,,Clear,0,2013-12-19 01:58:00
8:43 PM,46.4,46.4,100,30.28,9.0,Calm,Calm,-,N/A,,Clear,0,2013-12-19 02:43:00
8:48 PM,46.4,46.4,100,30.28,10.0,NNE,1.2,-,N/A,,Clear,30,2013-12-19 02:48:00
8:58 PM,46.8,46.8,100,30.28,10.0,NE,2.3,-,N/A,,Clear,40,2013-12-19 02:58:00
9:13 PM,44.6,44.6,100,30.28,8.0,Calm,Calm,-,N/A,,Clear,0,2013-12-19 03:13:00
9:28 PM,44.6,44.6,100,30.28,10.0,Calm,Calm,-,N/A,,Clear,0,2013-12-19 03:28:00
9:33 PM,46.4,46.4,100,30.28,8.0,NE,1.2,-,N/A,,Clear,40,2013-12-19 03:33:00
9:43 PM,46.4,46.4,100,30.28,10.0,NE,2.3,-,N/A,,Clear,50,2013-12-19 03:43:00
9:58 PM,45.1,45.1,100,30.27,10.0,NE,1.2,-,N/A,,Clear,40,2013-12-19 03:58:00
10:23 PM,44.6,44.6,100,30.27,5.0,Calm,Calm,-,N/A,,Clear,0,2013-12-19 04:23:00
10:33 PM,44.6,44.6,100,30.27,8.0,Calm,Calm,-,N/A,,Clear,0,2013-12-19 04:33:00
10:38 PM,44.6,44.6,100,30.27,10.0,Calm,Calm,-,N/A,,Clear,0,2013-12-19 04:38:00
10:43 PM,44.6,44.6,100,30.27,8.0,NNE,2.3,-,N/A,,Clear,30,2013-12-19 04:43:00
10:58 PM,43.5,43.5,100,30.27,10.0,NE,3.5,-,N/A,,Clear,50,2013-12-19 04:58:00
11:58 PM,44.8,44.8,100,30.25,10.0,Calm,Calm,-,N/A,,Clear,0,2013-12-19 05:58:00